Main page


Airports :

Bandar Lengeh, Iran

Bandar Lengeh Airport

latitude: 26-35N, longitude: 054-50E, elevation: 14 m

Current weather observation

The report was made 36 minutes ago, at 04:00 UTC
Calm wind
Temperature 21°C
Humidity 100%
Pressure 1009 hPa
Visibility: 3000 m
Scattered clouds at a height of 2000 ft

METAR: OIBL 170400Z 00000KT 3000 BR SCT020 21/21 Q1009

Time: 08:06 (04:36 UTC)

TAF: missing

Weather observations and forecasts of more than 4000 airports (METAR and TAF reports).

The available stations are represented by yellow and red dots on the map.

Hover mouse over dot to see the name of the station.

Then click to see weather observations and forecasts.

To change the map : click on the green buttons with a black cross to zoom in, on the green button with a dash to zoom out, or on the green arrows for adjacent maps.